Location: Unspecified
(0.0000°N, 0.0000°E)
Time: 15:39:38
(UTC+02:00)

Vanguard 1 Rocket - Visible Passes

Search period start: 27 April 2015 00:00
Search period end: 07 May 2015 00:00
Orbit: 655 x 4224 km, 34.3° (Epoch: 22 April)

Date Brightness Start Highest point End Pass type
(mag) Time Alt. Az. Time Alt. Az. Time Alt. Az.
27 Apr 10.5 00:14:43 10° WSW 00:47:59 26° NE 00:56:06 10° NE visible
27 Apr 11.2 03:05:06 32° NNW 03:06:53 33° NNW 03:27:57 10° NNE visible
27 Apr 11.6 05:31:07 10° NW 05:47:34 20° N 06:00:28 10° NE visible
27 Apr 9.8 20:40:31 10° SSW 20:48:07 27° SE 20:57:26 16° E visible
27 Apr 9.6 23:03:23 10° SW 23:39:14 12° NE 23:40:31 10° NE visible
28 Apr 11.1 01:31:58 10° W 01:56:21 38° N 02:13:44 10° NE visible
28 Apr 11.6 04:13:27 13° NW 04:29:43 23° N 04:46:00 10° NNE visible
28 Apr 11.5 06:54:23 10° NW 07:09:41 22° N 07:20:41 10° NE visible
28 Apr 9.4 21:53:01 10° SW 22:03:28 60° SE 22:09:34 44° E visible
29 Apr 10.4 00:18:51 10° WSW 00:47:14 32° NNE 00:58:58 10° NE visible
29 Apr 11.3 03:04:18 25° NW 03:11:45 28° NNW 03:31:27 10° NNE visible
29 Apr 11.6 05:36:20 10° NW 05:52:59 20° N 06:06:07 10° NE visible
29 Apr 9.5 20:43:31 10° SSW 20:51:34 35° SE 21:04:55 12° E visible
29 Apr 9.7 23:07:10 10° WSW 23:19:51 76° NW 23:43:35 10° NE visible
30 Apr 11.0 01:36:58 10° W 01:54:30 35° NNW 02:16:45 10° NE visible
30 Apr 11.7 04:17:13 10° NW 04:35:07 21° N 04:50:51 10° NE visible
30 Apr 11.4 06:57:36 10° NW 07:14:42 26° NNE 07:26:23 10° ENE visible
30 Apr 9.2 21:56:30 10° SW 22:06:49 76° SE 22:27:32 10° ENE visible
01 May 10.5 00:23:17 10° W 00:38:20 46° NNW 01:01:46 10° NE visible
01 May 11.5 02:58:47 10° WNW 03:16:53 24° NNW 03:35:23 10° NE visible
01 May 11.6 05:40:43 10° NW 05:58:19 23° N 06:11:59 10° NE visible
01 May 9.2 20:46:42 10° SSW 20:54:55 46° SE 21:10:45 10° ENE visible
01 May 9.9 23:11:09 10° WSW 23:23:36 62° NNW 23:46:28 10° NE visible
02 May 11.2 01:42:21 10° WNW 01:59:12 30° NNW 02:19:58 10° NE visible
02 May 11.7 04:22:50 10° NW 04:40:36 21° N 04:56:18 10° NE visible
02 May 11.2 07:00:30 10° NW 07:19:30 32° NNE 07:31:43 10° E visible
02 May 9.2 22:00:11 10° SW 22:10:17 87° NW 22:30:46 10° NE visible
03 May 10.8 00:28:02 10° W 00:42:42 38° NNW 01:04:36 10° NE visible
03 May 11.6 03:04:50 10° NW 03:22:14 22° N 03:39:55 10° NE visible
03 May 11.5 05:44:26 10° NW 06:03:27 26° NNE 06:17:47 10° ENE visible
03 May 8.9 20:50:04 10° SW 20:58:15 61° SE 21:14:40 10° ENE visible
03 May 10.2 23:15:25 10° W 23:27:37 50° NNW 23:49:13 10° NE visible
04 May 11.4 01:48:04 10° WNW 02:04:13 26° NNW 02:23:33 10° NE visible
04 May 11.7 04:27:42 10° NW 04:46:01 23° N 05:02:09 10° NE visible
04 May 11.0 07:03:16 10° NW 07:24:03 40° NNE 07:36:40 10° E visible
04 May 9.5 22:04:03 10° WSW 22:13:59 69° NNW 22:33:46 10° NE visible
05 May 11.0 00:33:10 10° WNW 00:47:20 31° NNW 01:07:32 10° NE visible
05 May 11.7 03:10:36 10° NW 03:27:42 22° N 03:45:07 10° NE visible
05 May 11.4 05:47:42 10° NW 06:08:21 31° NNE 06:23:17 10° ENE visible
05 May 8.8 20:53:37 10° SW 21:01:40 80° SE 21:18:12 10° NE visible
05 May 10.5 23:20:00 10° W 23:31:54 39° NNW 23:51:54 10° NE visible
06 May 11.5 01:53:58 10° NW 02:09:28 23° N 02:27:40 10° NE visible
06 May 11.6 04:31:52 10° NW 04:51:16 26° NNE 05:08:05 10° ENE visible
06 May 10.8 07:05:59 10° NW 07:28:19 50° NNE 07:41:14 10° E visible
06 May 9.8 22:08:10 10° WSW 22:17:54 53° NNW 22:36:34 10° NE visible
